Flag for U.S.A. Weather past 2 weeks in Denver, Colorado, U.S.A.

Now
12 °F

Scattered clouds.


Feels Like: 0 °F
Forecast: 4 / 17 °F
Wind: 8 mph from Southwest

Location: Buckley Air Force Base

Current Time: Feb 27, 2015 at 11:00:11 AM

Latest Report: Feb 27, 2015 at 9:58 AM


Visibility: 10 mi

Pressure: 30.16 "Hg

Humidity: 61%

Dew point: 1 °F

Location of DenverLocation

Historic Weather in Denver — Graph

°F

Denver temperature yesterday

Maximum temperature yesterday: 16 °F (at 11:58 AM)
Minimum temperature yesterday: 3 °F (at 5:58 AM)
Average temperature yesterday: 12 °F

Past Weeks' High & Low Weather Summary

 TemperatureHumidityPressure
High64 °F (Feb 14, 12:58 PM)100% (Feb 15, 6:58 PM)30.58 "Hg (Feb 15, 6:58 PM)
Low0 °F (Feb 27, 4:58 AM)10% (Feb 14, 12:58 PM)29.67 "Hg (Feb 20, 11:58 AM)
Average29 °F67%30.14 "Hg
* Reported Feb 12 9:58 AM — Feb 27 9:58 AM, Denver, Weather by CustomWeather, © 2015

Note: Actual official high and low records may vary slightly from our data, if they occured in-between our weather recording intervals... More about our weather records

Advertising

Denver weather history for previous 24 hours

 ConditionsComfort  
Time TempWeatherWind HumidityBarometerVisibility
9:58 AM
Fri, Feb 27
12 °FScattered clouds.8 mph61%30.16 "Hg10 mi
8:58 AM10 °FScattered clouds.13 mph64%30.18 "Hg10 mi
7:58 AM7 °FScattered clouds.14 mph70%30.20 "Hg10 mi
6:58 AM0 °FScattered clouds.8 mph79%30.23 "Hg10 mi
5:58 AM1 °FPartly cloudy.12 mph77%30.22 "Hg10 mi
4:58 AM0 °FPassing clouds.10 mph77%30.24 "Hg10 mi
3:58 AM4 °FPassing clouds.8 mph73%30.22 "Hg10 mi
2:58 AM6 °FPartly cloudy.5 mph73%30.22 "Hg10 mi
1:58 AM6 °FMostly cloudy.5 mph75%30.25 "Hg10 mi
12:58 AM8 °FOvercast.7 mph72%30.25 "Hg10 mi
11:58 PM
Thu, Feb 26
10 °FLight snow. Overcast.16 mph76%30.26 "Hg10 mi
10:58 PM11 °FLight snow. Ice fog.20 mph83%30.27 "Hg5 mi
9:58 PM12 °FLight snow. Overcast.16 mph87%30.28 "Hg2 mi
8:58 PM13 °FLight snow. Low clouds.20 mph87%30.28 "Hg1 mi
7:58 PM12 °FLight snow. Overcast.17 mph84%30.29 "Hg1 mi
5:58 PM13 °FLight snow. Ice fog.10 mph86%30.33 "Hg1 mi
4:58 PM14 °FLight snow. Mostly cloudy.13 mph83%30.30 "Hg3 mi
3:58 PM15 °FLight snow. Ice fog.13 mph87%30.27 "Hg1 mi
2:58 PM15 °FLight snow. Ice fog.12 mph84%30.27 "Hg1 mi
1:58 PM15 °FLight snow. Ice fog.13 mph77%30.27 "Hg1 mi
12:58 PM16 °FLight snow. Mostly cloudy.8 mph73%30.27 "Hg4 mi
11:58 AM16 °FOvercast.9 mph73%30.29 "Hg10 mi
Weather by CustomWeather, © 2015

See weather overviewHow to use our weather pages